Home > Weather > Bochum > Past weeks

Flag for Germany Weather for the Past 2 Weeks in Bochum, North Rhine-Westphalia, Germany

Now
39 °F

Passing clouds.


Feels Like: 32 °F
Forecast: 35 / 43 °F
Wind: 12 mph from Southwest

Location: Dortmund / Wickede

Current Time: Feb 11, 2016 at 1:52:23 AM

Latest Report: Feb 10, 2016 at 10:50 PM


Visibility: N/A

Pressure: 29.50 "Hg

Humidity: 87%

Dew point: 36 °F

Location of BochumLocation

Historic Weather in Bochum — Graph

°F

Bochum Temperature Yesterday

Maximum temperature yesterday: 39 °F (at 2:20 PM)
Minimum temperature yesterday: 34 °F (at 8:50 AM)
Average temperature yesterday: 38 °F

High & Low Weather Summary for the Past Weeks

 TemperatureHumidityPressure
High52 °F (Jan 27, 3:50 PM)94% (Feb 1, 7:20 AM)30.30 "Hg (Feb 1, 7:20 AM)
Low34 °F (Feb 9, 9:20 PM)53% (Jan 28, 2:20 PM)28.82 "Hg (Feb 9, 3:50 PM)
Average44 °F76%29.82 "Hg
* Reported Jan 26 10:50 PM — Feb 10 10:50 PM, Bochum, Weather by CustomWeather, © 2016

Note: Actual official high and low records may vary slightly from our data, if they occured in-between our weather recording intervals... More about our weather records

Advertising

Bochum Weather History for the Previous 24 Hours

 ConditionsComfort  
Time TempWeatherWind HumidityBarometerVisibility
10:50 PM
Wed, Feb 10
39 °FPassing clouds.12 mph87%29.50 "HgN/A
10:20 PM37 °FPassing clouds.10 mph87%29.47 "HgN/A
9:50 PM39 °FPassing clouds.10 mph87%29.47 "HgN/A
9:20 PM37 °FPassing clouds.13 mph93%29.47 "HgN/A
8:50 PM37 °FPassing clouds.13 mph93%29.45 "HgN/A
8:20 PM37 °FPassing clouds.13 mph93%29.45 "HgN/A
7:50 PM37 °FLight rain. Passing clouds.12 mph93%29.45 "HgN/A
7:20 PM39 °FLight rain. Passing clouds.10 mph87%29.42 "HgN/A
6:50 PM39 °FLight rain. Passing clouds.14 mph87%29.39 "Hg6 mi
6:20 PM39 °FLight rain. Passing clouds.14 mph87%29.39 "HgN/A
5:50 PM39 °FLight rain. Partly cloudy.14 mph81%29.36 "HgN/A
5:20 PM39 °FBroken clouds.15 mph81%29.36 "HgN/A
4:50 PM39 °FSunny.16 mph81%29.36 "Hg10 mi
4:20 PM39 °FScattered showers. Partly sunny.14 mph81%29.36 "HgN/A
3:50 PM39 °FSprinkles. Broken clouds.12 mph87%29.33 "HgN/A
3:20 PM39 °FSprinkles. Partly sunny.13 mph87%29.33 "Hg6 mi
2:50 PM39 °FBroken clouds.15 mph81%29.33 "HgN/A
2:20 PM39 °FScattered showers. Partly sunny.14 mph81%29.33 "HgN/A
1:50 PM37 °FLight rain. Partly sunny.16 mph87%29.33 "Hg5 mi
1:20 PM37 °FPartly sunny.14 mph87%29.30 "HgN/A
12:50 PM37 °FSprinkles. Partly sunny.14 mph87%29.30 "HgN/A
12:20 PM37 °FLight rain. Partly sunny.13 mph87%29.30 "HgN/A
11:50 AM37 °FScattered showers. Partly sunny.15 mph87%29.30 "HgN/A
11:20 AM37 °FPartly sunny.13 mph87%29.30 "HgN/A
10:50 AM36 °FScattered showers. Partly sunny.15 mph87%29.30 "HgN/A
10:20 AM36 °FPartly sunny.17 mph87%29.27 "HgN/A
9:50 AM36 °FLight rain. Partly sunny.16 mph87%29.27 "HgN/A
9:20 AM36 °FLight rain. Partly sunny.14 mph87%29.24 "HgN/A
8:50 AM34 °FLight rain. Partly sunny.15 mph93%29.24 "Hg5 mi
8:20 AM36 °FLight rain. Partly sunny.16 mph87%29.24 "Hg4 mi
7:50 AM36 °FLight rain. Passing clouds.17 mph87%29.24 "HgN/A
7:20 AM36 °FLight rain. Passing clouds.16 mph87%29.24 "HgN/A
6:50 AM36 °FLight rain. Partly cloudy.15 mph87%29.21 "HgN/A
6:20 AM37 °FLight rain. Passing clouds.14 mph81%29.21 "HgN/A
5:50 AM37 °FLight rain. Passing clouds.17 mph81%29.21 "HgN/A
5:20 AM37 °FLight rain. Passing clouds.13 mph81%29.24 "HgN/A
Weather by CustomWeather, © 2016

See weather overviewHow to use our weather pages